Find Starlink 38259

NORAD ID: 100252 Int'l Des: 2026-181 Owner: SPXS Country: US Constellation: starlink operational

当前视图

正在加载3D地球...

About Starlink 38259

Starlink 38259 (NORAD 100252) is a starlink constellation satellite launched Aug 8, 2026 by SPXS of US. with a mass of 575.00 kg.

即将过境

Passes for default location (London). Set your location on the main map for personalized predictions.

高度历史

Loading altitude history...

两行轨道根数

1 A0252U 26181G 26250.88563474 .00274913 00000-0 17808-2 0 9999
2 A0252 97.2856 293.8434 0001573 75.4490 284.6949 15.75248203 5921
Epoch: Sep 7, 2026 • Age: 21 hours

当前状态

高度 344.8 km
远地点 / 近地点 N/A
速度 7.70 km/s
星下点 23.09°N, 23.42°E
发射日期 Aug 8, 2026
运行时间 31 days
类型 internet

技术详情

分类 Payload
质量 575.00 kg
干质量 530.00 kg
总质量 575.00 kg
长度 0.30 m
直径 4.10 m
跨度 29.00 m
形状 Box + pan
制造商 SPXS
平台类型 Starlink V2MO
阶段状态 In Orbit
所有者/国家 SPXS/US

Most Searched